User: anonymous   Login
Location: Mactaquac Provincial Park
(45.9573°N, 66.8897°W)
Time: 22:27:17
(UTC-03:00)
Language:

CENTAUR R/B - Orbit

View from above orbital plane
View from above orbital plane
View from above satellite
View from above satellite

Ground track
Ground track

The orbit data is extracted from the following two-line orbital elements,

1 26906U 01040B   18108.29516983 0.00000010  00000-0  11001-4 0    00
2 26906  63.4567 271.0486 0386756 341.6202  18.3798 13.44027331    01
Epoch (UTC): 18 April 2018 07:05:02
Eccentricity: 0.0386756
inclination: 63.4567°
perigee height: 805 km
apogee height: 1383 km
right ascension of ascending node: 271.0486°
argument of perigee: 341.6202°
revolutions per day: 13.44027331
mean anomaly at epoch: 18.3798°
orbit number at epoch: 0

The dashed part of the orbit path shows where the satellite is in the earth's shadow,  

DLR